Location: Goheenville
(40.9070°N, 79.3720°W)
Time: 02:46:55
(UTC-04:00)

Meteor 2-10 Rocket - Visible Passes

Search period start: 31 August 2015 00:00
Search period end: 10 September 2015 00:00
Orbit: 734 x 885 km, 81.2° (Epoch: 30 August)

Date Brightness Start Highest point End Pass type
(mag) Time Alt. Az. Time Alt. Az. Time Alt. Az.
31 Aug 6.8 04:31:15 10° E 04:31:49 10° E 04:32:47 10° ENE visible
31 Aug 3.8 06:07:31 10° S 06:13:14 87° E 06:18:46 10° N visible
01 Sep 4.2 05:43:27 10° S 05:49:02 63° E 05:54:29 10° NNE visible
02 Sep 4.8 05:19:33 10° SSE 05:24:53 45° E 05:30:05 10° NNE visible
03 Sep 5.4 04:55:52 10° SSE 05:00:44 32° E 05:05:35 10° NNE visible
04 Sep 5.9 04:32:25 10° SE 04:36:38 23° E 04:40:54 10° NE visible
04 Sep 4.0 06:13:07 10° SSW 06:18:29 44° WNW 06:23:39 10° N visible
05 Sep 6.2 04:09:21 10° ESE 04:12:33 16° E 04:15:56 10° NE visible
05 Sep 3.7 05:48:38 10° SSW 05:54:12 62° WNW 05:59:34 10° N visible
06 Sep 6.5 03:47:13 10° E 03:48:29 11° E 03:50:07 10° ENE visible
06 Sep 3.6 05:24:21 10° S 05:29:57 86° W 05:35:23 10° N visible
07 Sep 3.9 05:00:15 10° S 05:05:45 68° E 05:11:06 10° NNE visible
08 Sep 4.5 04:37:16 15° SSE 04:41:34 48° E 04:46:44 10° NNE visible
08 Sep 4.9 06:19:45 10° WSW 06:23:57 21° WNW 06:27:54 10° NNW visible
09 Sep 5.0 04:14:10 18° SE 04:17:26 34° E 04:22:15 10° NNE visible
09 Sep 4.5 05:55:23 13° SW 05:59:33 29° WNW 06:04:07 10° NNW visible
